Погода в Ангасяке

Россия / Республика Башкортостан     55°38′29″N   54°47′45″E
темп.,
°C
ветер,
м/с
пор.,
м/с
влажн.,
%
обл.,
%
осадки,
мм/ч
давл.,
гПа
погр.,
м
8 мая, сб
сб823:00+13ю3465100 0.0 101773
02:00+12ю2267100 0.0 101727
05:00+11ююв2269100 0.0 101730
08:00+13ю237398 0.5 1017107
11:00+18ююз3452100 0.5 1017722
14:00+19юз3543100 0.0 10172333
17:00+18ююз3349100 0.0 1017837
20:00+15ююв127242 0.1 101664
9 мая, вс
вс923:00+11ю117785 0.1 101710
02:00+10ююв11765 0.0 101710
05:00+10вюв11765 0.0 101710
08:00+14вюв23661 0.0 1017147
11:00+19вюв23515 0.0 1017830
14:00+22юв34378 0.0 10162265
17:00+22ююв333679 0.0 10162361
20:00+19вюв225179 0.0 101623
10 мая, пн
пн1023:00+15юв3456100 0.0 101759
02:00+13вюв3361100 0.0 101733
05:00+12юв3461100 0.0 101846
08:00+16юв365793 0.0 1020193
11:00+20ююв3445100 0.0 1020706
14:00+23ю3338100 0.0 10201635
17:00+23ююз1241100 0.0 10211545
20:00+19сз2260100 0.0 102225
11 мая, вт
вт1123:00+15ссз4880100 0.1 1024293
02:00+13ссз3793100 0.1 1024256
05:00+11ссз4889100 0.1 1026401
08:00+12с478550 0.0 1027450
11:00+16с446135 0.0 10281106
14:00+18с55470 0.0 10281353
17:00+18с55404 0.0 10281526
20:00+15с36495 0.0 1029220
12 мая, ср
ср1223:00+10ссв35577 0.0 103078
02:00+9св23585 0.0 103136
05:00+8св346088 0.0 103158
08:00+11св3555100 0.0 1031218
11:00+16св3443100 0.0 1031811
14:00+19св34415 0.0 10301175
17:00+21ссв34435 0.0 10291386
20:00+18св2259100 0.0 102932